Flight Track Log - Related Links

Times and Time Zones

All times are in EDT time to prevent confusion due to time zone crossing. See the DAL906 flight status page for this flight to view local times or setup timezone preferences in your user account.

Time Position Orientation Groundspeed Altitude Reporting Facility
EDT Latitude Longitude Course Direction KTS MPH feet Rate Location/Type
08:10PM 33.6333 -84.4667 64° Northeast 176 203 2,300  Level Atlanta TRACON
08:11PM 33.6139 -84.5328 251° West 447 514 3,700 2,279 Climbing Atlanta Center
08:12PM 33.8939 -84.1002 75° East  Level Estimated
08:13PM 33.8514 -83.9588 110° East  Level FlightAware Approximate
08:13PM 33.4778 -84.5817 197° South 290 334 9,100  Level Atlanta Center
08:14PM 33.9378 -83.8501 76° East  Level Estimated
08:14PM 33.4428 -84.4944 116° Southeast 261 300 10,900  Level Atlanta Center
08:15PM 34.0241 -83.7412 64° Northeast  Level Estimated
08:15PM 33.4578 -84.3750 81° East 269 310 12,800  Level Atlanta Center
08:16PM 33.4936 -84.2556 70° East 313 360 14,700 1,600 Climbing Atlanta Center
08:17PM 33.5647 -84.1486 51° Northeast 354 407 16,000 1,400 Climbing Atlanta Center
08:18PM 33.6564 -84.0439 44° Northeast 398 458 17,500 1,650 Climbing Atlanta Center
08:19PM 33.7233 -83.9164 58° Northeast 429 494 19,300 1,550 Climbing Atlanta Center
08:20PM 33.7711 -83.7614 70° East 454 522 20,600 1,400 Climbing Atlanta Center
08:21PM 33.8228 -83.6061 68° East 478 550 22,100 1,400 Climbing Atlanta Center
08:22PM 33.8911 -83.4608 60° Northeast 486 559 23,400 1,600 Climbing Atlanta Center
08:23PM 34.0011 -83.3697 34° Northeast 474 545 25,300 1,600 Climbing Atlanta Center
08:24PM 34.1050 -83.2736 37° Northeast 459 528 26,600 1,250 Climbing Atlanta Center
08:25PM 34.1833 -83.1322 56° Northeast 480 552 27,800 1,000 Climbing Atlanta Center
08:26PM 34.2633 -82.9606 61° Northeast 510 587 28,600 950 Climbing Atlanta Center
08:27PM 34.3308 -82.8086 62° Northeast 515 593 29,700 850 Climbing Atlanta Center
08:28PM 34.4083 -82.6592 58° Northeast 515 593 30,300 750 Climbing Atlanta Center
08:29PM 34.4797 -82.5142 59° Northeast 515 593 31,200 900 Climbing Atlanta Center
08:30PM 34.5528 -82.3592 60° Northeast 515 593 32,100 800 Climbing Atlanta Center
08:31PM 34.6239 -82.2086 60° Northeast 515 593 32,800 450 Climbing Atlanta Center
08:32PM 34.6944 -82.0531 61° Northeast 515 593 33,000 100 Climbing Atlanta Center
08:33PM 34.7611 -81.9225 58° Northeast 515 593 33,000  Level Atlanta Center
08:34PM 34.8314 -81.7664 61° Northeast 515 593 33,000  Level Atlanta Center
08:35PM 34.9056 -81.6125 60° Northeast 521 600 33,000  Level Atlanta Center
08:36PM 34.9839 -81.4631 57° Northeast 521 600 33,000  Level Atlanta Center
08:37PM 35.0622 -81.3161 57° Northeast 521 600 33,000  Level Atlanta Center
08:38PM 35.1422 -81.1636 57° Northeast 527 606 33,000  Level Atlanta Center
08:39PM 35.2178 -81.0108 59° Northeast 527 606 33,000  Level Atlanta Center
08:40PM 35.2953 -80.8606 58° Northeast 532 612 33,000  Level Atlanta Center
08:41PM 35.3806 -80.6942 58° Northeast 520 598 33,000  Level Atlanta Center
08:42PM 35.4558 -80.5483 58° Northeast 520 598 33,000  Level Atlanta Center
08:43PM 35.5328 -80.3997 58° Northeast 515 593 33,000  Level Atlanta Center
08:44PM 35.6078 -80.2506 58° Northeast 515 593 33,000  Level Atlanta Center
08:45PM 35.7325 -80.0058 58° Northeast 502 578 33,000  Level Washington Center
08:46PM 35.8089 -79.8539 58° Northeast 502 578 33,000  Level Washington Center
08:47PM 35.8806 -79.7167 58° Northeast 516 594 33,000  Level Washington Center
08:48PM 35.8792 -79.6915 58° Northeast  Level FlightAware Approximate
08:48PM 35.9611 -79.5517 59° Northeast 511 588 33,000  Level Washington Center
08:49PM 36.0192 -79.4364 58° Northeast 506 582 33,000  Level Washington Center
08:50PM 36.0994 -79.2758 58° Northeast 500 575 33,000  Level Washington Center
08:51PM 36.1706 -79.1272 59° Northeast 500 575 33,000  Level Washington Center
08:52PM 36.2458 -78.9814 57° Northeast 500 575 33,000  Level Washington Center
08:53PM 36.3167 -78.8350 59° Northeast 500 575 33,000  Level Washington Center
08:54PM 36.3914 -78.6883 58° Northeast 500 575 33,000  Level Washington Center
08:55PM 36.4864 -78.5706 45° Northeast 493 567 33,000  Level Washington Center
08:56PM 36.5872 -78.4556 42° Northeast 480 552 33,000  Level Washington Center
08:57PM 36.6839 -78.3372 44° Northeast 485 558 33,000  Level Washington Center
08:58PM 36.7844 -78.2217 43° Northeast 485 558 33,000  Level Washington Center
08:59PM 36.8831 -78.1028 44° Northeast 485 558 33,000  Level Washington Center
09:00PM 36.9814 -77.9864 43° Northeast 485 558 33,000  Level Washington Center
09:01PM 37.0817 -77.8672 43° Northeast 485 558 33,000  Level Washington Center
09:02PM 37.1819 -77.7478 43° Northeast 485 558 33,000  Level Washington Center
09:03PM 37.2819 -77.6278 44° Northeast 485 558 33,000  Level Washington Center
09:04PM 37.3822 -77.5075 44° Northeast 485 558 33,000  Level Washington Center
09:05PM 37.4819 -77.3872 44° Northeast 485 558 33,000  Level Washington Center
09:06PM 37.5858 -77.2664 43° Northeast 485 558 33,000  Level Washington Center
09:07PM 37.6856 -77.1453 44° Northeast 490 564 33,000  Level Washington Center
09:08PM 37.7853 -77.0211 45° Northeast 490 564 33,000  Level Washington Center
09:09PM 37.8867 -76.8994 43° Northeast 490 564 33,000  Level Washington Center
09:10PM 37.9861 -76.7722 45° Northeast 490 564 33,000  Level Washington Center
09:11PM 38.0872 -76.6497 44° Northeast 490 564 33,000  Level Washington Center
09:12PM 38.1864 -76.5217 45° Northeast 490 564 33,000  Level Washington Center
09:13PM 38.2914 -76.3958 43° Northeast 495 570 33,000  Level Washington Center
09:14PM 38.4131 -76.2833 36° Northeast 495 570 33,000  Level Washington Center
09:15PM 38.5283 -76.1756 36° Northeast 500 575 33,000 -50 Level Washington Center
09:16PM 38.6331 -76.0833 35° Northeast 506 582 32,900 -689 Descending Washington Center
09:17PM 38.7481 -75.9750 36° Northeast 506 582 31,600 -1,636 Descending Washington Center
09:18PM 38.8631 -75.8661 36° Northeast 506 582 29,600 -2,542 Descending Washington Center
09:19PM 38.9758 -75.7597 36° Northeast 501 577 26,600 -2,067 Descending Washington Center
09:20PM 39.0883 -75.6531 36° Northeast 501 577 25,500 -1,082 Descending Washington Center
09:21PM 39.1967 -75.5486 37° Northeast 495 570 24,400 -1,160 Descending Washington Center
09:22PM 39.3050 -75.4522 35° Northeast 490 564 23,200 -1,271 Descending Washington Center
09:23PM 39.4133 -75.3553 35° Northeast 479 551 21,900 -1,230 Descending Washington Center
09:24PM 39.5172 -75.2606 35° Northeast 471 542 20,700 -1,180 Descending Washington Center
09:25PM 39.6189 -75.1658 36° Northeast 460 529 19,500 -1,576 Descending Washington Center
09:26PM 39.7311 -75.0653 35° Northeast 443 510 17,600 -1,916 Descending Washington Center
09:27PM 39.8225 -74.9864 34° Northeast 443 510 15,700 -2,227 Descending Washington Center
09:28PM 39.9500 -74.8667 36° Northeast 418 481 12,700 -2,153 Descending New York TRACON
09:29PM 40.0167 -74.7500 53° Northeast 407 468 11,000 -1,350 Descending New York TRACON
09:30PM 40.1000 -74.6500 43° Northeast 403 464 10,000 -500 Descending New York TRACON
09:31PM 40.1667 -74.5333 53° Northeast 396 456 10,000  Level New York TRACON
09:32PM 40.2333 -74.4500 44° Northeast 389 448 10,000 -150 Level New York TRACON
09:33PM 40.3167 -74.3500 42° Northeast 336 387 9,700 -550 Descending New York TRACON
09:34PM 40.3833 -74.2833 37° Northeast 300 345 8,900 -1,263 Descending New York TRACON
09:35PM 40.4333 -74.2167 45° Northeast 292 336 7,300 -1,429 Descending New York TRACON
09:36PM 40.5000 -74.1500 37° Northeast 281 323 5,900 -1,286 Descending New York TRACON
09:37PM 40.5667 -74.0833 37° Northeast 271 312 4,600 -950 Descending New York TRACON
09:38PM 40.6333 -74.0333 30° Northeast 269 310 4,000 -286 Descending New York TRACON
09:40PM 40.6833 -73.9667 45° Northeast 271 312 4,000  Level New York TRACON
09:41PM 40.7333 -73.8833 52° Northeast 273 314 4,000  Level New York TRACON
09:42PM 40.7833 -73.8000 52° Northeast 274 315 4,000 -450 Level New York TRACON
09:43PM 40.8333 -73.7500 37° Northeast 260 299 3,100 -476 Descending New York TRACON
09:44PM 40.9000 -73.7167 21° North 210 242 3,000 -200 Descending New York TRACON
09:45PM 40.9000 -73.7833 270° West 191 220 2,700 -737 Descending New York TRACON
09:46PM 40.8500 -73.8167 207° Southwest 193 222 1,600 -900 Descending New York TRACON
09:47PM 40.8167 -73.8500 217° Southwest 145 167 900 -700 Descending New York TRACON

Login

Don't have an account? Register now (free) for customized features, flight alerts, and more!